Location: Zagreb
(45.8000°N, 16.0000°E)
Time: 18:59:02
(UTC+02:00)

A-11 Canister half - Pass Details

Date: 18 August 2022
Orbit: 1524 x 1684 km, 47.3° (Epoch: 05 October)

Event Time Altitude Azimuth Distance (km) Brightness Sun altitude
Rises 04:02:13 0° 218° (SW) 4,857 - -18.2°
Reaches altitude 10° 04:05:27 10° 213° (SSW) 3,891 - -17.8°
Exits shadow 04:08:00 20° 206° (SSW) 3,174 10.1 -17.5°
Maximum altitude 04:14:55 50° 142° (SE) 2,060 9.6 -16.5°
Drops below altitude 10° 04:24:31 10° 72° (ENE) 3,952 12.3 -15.3°
Sets 04:27:49 0° 67° (ENE) 4,939 13.3 -14.8°
